| time (UTC) | temp C | wind direction | speed KPH | gust KPH | rain 1hr cm | rain 24hr cm | rain mn cm | humidity % | barometer mb |
| 20260902221547 | 20 | 127 | 0.0 | 6.4 | 0.00 | 0.00 | 0.00 | 77 | 1018.1 |
| 20260902220037 | 20 | 127 | 1.6 | 9.7 | 0.00 | 0.00 | 0.00 | 78 | 1018.1 |
| 20260902214538 | 20 | 132 | 3.2 | 14.5 | 0.00 | 0.00 | 0.00 | 78 | 1018.1 |
| 20260902213044 | 20 | 123 | 1.6 | 8.0 | 0.00 | 0.00 | 0.00 | 78 | 1018.3 |
| 20260902211546 | 20 | 116 | 1.6 | 8.0 | 0.00 | 0.00 | 0.00 | 78 | 1018.1 |
| 20260902210037 | 20 | 124 | 3.2 | 6.4 | 0.00 | 0.00 | 0.00 | 78 | 1018.2 |
| 20260902204536 | 20 | 123 | 3.2 | 9.7 | 0.00 | 0.00 | 0.00 | 77 | 1017.8 |
| 20260902203035 | 20 | 128 | 1.6 | 12.9 | 0.00 | 0.00 | 0.00 | 77 | 1018.2 |
| 20260902201538 | 20 | 123 | 3.2 | 11.3 | 0.00 | 0.00 | 0.00 | 76 | 1018.4 |
| 20260902200035 | 21 | 119 | 3.2 | 8.0 | 0.00 | 0.00 | 0.00 | 76 | 1018.1 |
| 20260902194534 | 21 | 128 | 4.8 | 9.7 | 0.00 | 0.00 | 0.00 | 76 | 1018.3 |
| 20260902193032 | 20 | 120 | 3.2 | 6.4 | 0.00 | 0.00 | 0.00 | 76 | 1018.5 |
| 20260902191536 | 21 | 119 | 6.4 | 11.3 | 0.00 | 0.00 | 0.00 | 75 | 1018.8 |
| 20260902190032 | 21 | 129 | 3.2 | 8.0 | 0.00 | 0.00 | 0.00 | 73 | 1018.8 |
| 20260902184530 | 21 | 143 | 3.2 | 12.9 | 0.00 | 0.00 | 0.00 | 73 | 1018.6 |
| 20260902183029 | 21 | 144 | 1.6 | 9.7 | 0.00 | 0.00 | 0.00 | 74 | 1018.7 |
| 20260902181529 | 20 | 125 | 0.0 | 11.3 | 0.00 | 0.00 | 0.00 | 74 | 1019.0 |
| 20260902180028 | 21 | 128 | 1.6 | 8.0 | 0.00 | 0.00 | 0.00 | 72 | 1019.0 |
| 20260902174529 | 21 | 130 | 3.2 | 9.7 | 0.00 | 0.00 | 0.00 | 72 | 1018.9 |
| 20260902173027 | 21 | 111 | 3.2 | 11.3 | 0.00 | 0.00 | 0.00 | 71 | 1019.0 |
| 20260902171527 | 21 | 121 | 3.2 | 11.3 | 0.00 | 0.00 | 0.00 | 70 | 1018.8 |
| 20260902170024 | 21 | 123 | 4.8 | 11.3 | 0.00 | 0.00 | 0.00 | 70 | 1018.9 |
| 20260902164526 | 20 | 131 | 4.8 | 8.0 | 0.00 | 0.00 | 0.00 | 69 | 1019.2 |
| 20260902163023 | 20 | 118 | 4.8 | 11.3 | 0.00 | 0.00 | 0.00 | 70 | 1019.3 |
| 20260902161522 | 20 | 134 | 0.0 | 8.0 | 0.00 | 0.00 | 0.00 | 72 | 1019.5 |
| 20260902160018 | 20 | 140 | 1.6 | 6.4 | 0.00 | 0.00 | 0.00 | 74 | 1019.5 |
| 20260902154526 | 20 | 129 | 3.2 | 11.3 | 0.00 | 0.00 | 0.00 | 73 | 1019.6 |
| 20260902153016 | 19 | 134 | 1.6 | 8.0 | 0.00 | 0.00 | 0.00 | 73 | 1019.9 |
| 20260902151515 | 19 | 146 | 1.6 | 4.8 | 0.00 | 0.00 | 0.00 | 73 | 1020.1 |
| 20260902150013 | 19 | 157 | 1.6 | 8.0 | 0.00 | 0.00 | 0.00 | 73 | 1020.0 |
| 20260902144527 | 19 | 119 | 3.2 | 8.0 | 0.00 | 0.00 | 0.00 | 73 | 1020.1 |
| 20260902143016 | 19 | 120 | 1.6 | 4.8 | 0.00 | 0.00 | 0.00 | 73 | 1020.2 |
| 20260902141519 | 19 | 128 | 1.6 | 8.0 | 0.00 | 0.00 | 0.00 | 73 | 1020.3 |
| 20260902140016 | 19 | 128 | 0.0 | 6.4 | 0.00 | 0.00 | 0.00 | 73 | 1019.9 |
| 20260902134513 | 19 | 128 | 1.6 | 3.2 | 0.00 | 0.00 | 0.00 | 75 | 1019.8 |
| 20260902133003 | 18 | 130 | 0.0 | 6.4 | 0.00 | 0.00 | 0.00 | 74 | 1019.7 |
| 20260902131504 | 18 | 130 | 3.2 | 8.0 | 0.00 | 0.00 | 0.00 | 74 | 1019.4 |
| 20260902130001 | 18 | 148 | 0.0 | 4.8 | 0.00 | 0.08 | 0.00 | 76 | 1019.5 |
| 20260902124607 | 18 | 132 | 0.0 | 6.4 | 0.00 | 0.08 | 0.00 | 76 | 1019.3 |
| 20260902123103 | 18 | 159 | 1.6 | 4.8 | 0.00 | 0.08 | 0.00 | 77 | 1019.4 |
| 20260902121608 | 18 | 139 | 0.0 | 4.8 | 0.00 | 0.08 | 0.00 | 77 | 1019.3 |
| 20260902120055 | 17 | 142 | 1.6 | 8.0 | 0.00 | 0.18 | 0.00 | 77 | 1019.3 |
| 20260902114554 | 17 | 138 | 0.0 | 4.8 | 0.00 | 0.18 | 0.00 | 77 | 1019.5 |
| 20260902113104 | 17 | 138 | 0.0 | 3.2 | 0.00 | 0.18 | 0.00 | 77 | 1019.6 |
| 20260902111555 | 17 | 138 | 0.0 | 1.6 | 0.00 | 0.18 | 0.00 | 78 | 1019.8 |
| 20260902110055 | 17 | 138 | 0.0 | 3.2 | 0.00 | 0.33 | 0.00 | 77 | 1019.7 |
| 20260902104556 | 17 | 138 | 0.0 | 4.8 | 0.00 | 0.33 | 0.00 | 77 | 1019.7 |
| 20260902103050 | 17 | 138 | 0.0 | 4.8 | 0.00 | 0.33 | 0.00 | 77 | 1019.6 |
| 20260902101557 | 17 | 150 | 0.0 | 9.7 | 0.00 | 0.33 | 0.00 | 76 | 1019.5 |
| 20260902094545 | 17 | 132 | 0.0 | 3.2 | 0.00 | 0.36 | 0.00 | 76 | 1018.9 |
| 20260902093047 | 17 | 211 | 0.0 | 3.2 | 0.00 | 0.36 | 0.00 | 76 | 1019.1 |
| 20260902091543 | 18 | 148 | 0.0 | 3.2 | 0.00 | 0.36 | 0.00 | 75 | 1019.0 |
| 20260902090043 | 18 | 146 | 0.0 | 4.8 | 0.00 | 0.36 | 0.00 | 75 | 1019.0 |
| 20260902084551 | 18 | 126 | 1.6 | 3.2 | 0.00 | 0.36 | 0.00 | 76 | 1018.8 |
| 20260902083046 | 18 | 126 | 0.0 | 3.2 | 0.00 | 0.36 | 0.00 | 77 | 1018.7 |
| 20260902081548 | 18 | 126 | 0.0 | 4.8 | 0.00 | 0.36 | 0.00 | 76 | 1018.7 |
| 20260902080041 | 18 | 149 | 0.0 | 3.2 | 0.00 | 0.36 | 0.00 | 77 | 1018.9 |
| 20260902074540 | 18 | 129 | 0.0 | 1.6 | 0.00 | 0.36 | 0.00 | 77 | 1018.9 |
| 20260902073049 | 18 | 129 | 0.0 | 1.6 | 0.00 | 0.36 | 0.00 | 78 | 1019.0 |
| 20260902071541 | 18 | 129 | 0.0 | 3.2 | 0.00 | 0.36 | 0.00 | 78 | 1018.9 |
| 20260902070039 | 18 | 129 | 0.0 | 4.8 | 0.00 | 0.36 | 0.00 | 78 | 1018.9 |
| 20260902064547 | 18 | 142 | 1.6 | 4.8 | 0.00 | 0.36 | 0.00 | 79 | 1018.9 |
| 20260902063048 | 18 | 142 | 0.0 | 6.4 | 0.00 | 0.36 | 0.00 | 79 | 1019.1 |
| 20260902061535 | 18 | 142 | 0.0 | 9.7 | 0.00 | 0.36 | 0.00 | 80 | 1018.9 |
| 20260902060034 | 18 | 138 | 0.0 | 1.6 | 0.00 | 0.36 | 0.00 | 83 | 1018.7 |
| 20260902054531 | 18 | 138 | 1.6 | 4.8 | 0.00 | 0.36 | 0.00 | 84 | 1018.5 |
| 20260902053031 | 18 | 137 | 0.0 | 1.6 | 0.00 | 0.36 | 0.00 | 85 | 1018.5 |
| 20260902051530 | 18 | 137 | 0.0 | 1.6 | 0.00 | 0.36 | 0.00 | 86 | 1018.5 |
| 20260902050028 | 18 | 137 | 0.0 | 3.2 | 0.00 | 0.36 | 0.00 | 86 | 1018.5 |
| 20260902044527 | 18 | 137 | 0.0 | 3.2 | 0.00 | 0.36 | 0.00 | 87 | 1018.3 |
| 20260902043026 | 18 | 137 | 0.0 | 8.0 | 0.00 | 0.36 | 0.00 | 87 | 1018.3 |
| 20260902041524 | 18 | 135 | 0.0 | 1.6 | 0.00 | 0.36 | 0.00 | 88 | 1018.4 |
| 20260902040023 | 18 | 135 | 1.6 | 3.2 | 0.00 | 0.36 | 0.36 | 88 | 1018.2 |
| 20260902034524 | 18 | 141 | 1.6 | 6.4 | 0.00 | 0.36 | 0.36 | 88 | 1017.9 |
| 20260902033019 | 18 | 150 | 0.0 | 3.2 | 0.00 | 0.36 | 0.36 | 88 | 1017.8 |
| 20260902031519 | 18 | 150 | 0.0 | 1.6 | 0.00 | 0.36 | 0.36 | 88 | 1017.6 |
| 20260902030017 | 18 | 150 | 0.0 | 3.2 | 0.00 | 0.36 | 0.36 | 87 | 1017.5 |
| 20260902024517 | 18 | 150 | 0.0 | 1.6 | 0.00 | 0.36 | 0.36 | 87 | 1017.6 |
| 20260902023019 | 18 | 150 | 0.0 | 4.8 | 0.00 | 0.36 | 0.36 | 87 | 1017.8 |
| 20260902021516 | 18 | 209 | 0.0 | 0.0 | 0.00 | 0.36 | 0.36 | 87 | 1017.7 |
| 20260902020015 | 18 | 209 | 1.6 | 4.8 | 0.00 | 0.36 | 0.36 | 87 | 1017.6 |
| 20260902014529 | 18 | 137 | 0.0 | 6.4 | 0.00 | 0.36 | 0.36 | 86 | 1017.5 |
| 20260902013014 | 18 | 136 | 0.0 | 1.6 | 0.00 | 0.36 | 0.36 | 86 | 1017.2 |
| 20260902011532 | 18 | 136 | 0.0 | 3.2 | 0.00 | 0.36 | 0.36 | 86 | 1017.3 |
| 20260902010012 | 18 | 136 | 1.6 | 6.4 | 0.00 | 0.36 | 0.36 | 87 | 1017.1 |
| 20260902004511 | 18 | 198 | 0.0 | 0.0 | 0.00 | 0.36 | 0.36 | 87 | 1017.3 |
| 20260902003013 | 18 | 198 | 0.0 | 0.0 | 0.00 | 0.36 | 0.36 | 87 | 1017.2 |
| 20260902001513 | 18 | 198 | 0.0 | 0.0 | 0.00 | 0.36 | 0.36 | 87 | 1017.3 |
| 20260902000010 | 18 | 213 | 0.0 | 1.6 | 0.00 | 0.36 | 0.36 | 86 | 1017.1 |
| 20260901234510 | 18 | 168 | 0.0 | 1.6 | 0.00 | 0.36 | 0.36 | 85 | 1016.9 |
| 20260901233009 | 18 | 167 | 0.0 | 1.6 | 0.00 | 0.36 | 0.36 | 85 | 1016.7 |
| 20260901231510 | 19 | 142 | 0.0 | 3.2 | 0.00 | 0.36 | 0.36 | 85 | 1016.7 |
| 20260901230009 | 19 | 142 | 0.0 | 3.2 | 0.00 | 0.36 | 0.36 | 84 | 1016.7 |
| 20260901224511 | 19 | 142 | 0.0 | 4.8 | 0.00 | 0.36 | 0.36 | 84 | 1016.5 |
| 20260901223011 | 19 | 133 | 1.6 | 6.4 | 0.00 | 0.36 | 0.36 | 84 | 1016.6 |